THOR ABLESTAR DEB, 544

Orbit data source: Space-Track

THOR ABLESTAR DEB, 544 is space debris in LEO originally from a launch on Thu, 29 Jun 1961 UTC launched from the Air Force Eastern Test Range (AFETR). Debris objects in space refer to the collection of defunct objects orbiting the Earth. Examples of debris include non-operational satellites, rocket bodies, and fragments generated from explosions, collisions, or faulty payload assembly.

Loading next visibility...
Identifier
544, 1961-015GD
Orbit
LEO
Country
Flag of USUS
Related business
Manufacturer
Unknown
Mission
Spacecraft
Bus & Motor
Unknown
Mass
Unknown
Launch date (UTC)
1961-06-29 (64 years ago)
Launch vehicle
Unknown
Launch site
Air Force Eastern Test Range (AFETR)
Object type
Payload
Rocket body
Debris
Shape & HBR
Unknown
Radar Cross Section
Small (<0.1 m²)

Expand to show TLE details & history
Last TLE update: 14 hours ago

TLE from 14 hours ago
0 THOR ABLESTAR DEB
1 00544U 61015GD  25259.02660162  .00000353  00000-0  54317-3 0  9996
2 00544  66.8730 129.4513 0179444  88.6141  22.6052 13.56014511164439
Epoch: 2025-09-16T00:38Z
TLE epoch observation values (Epoch: 2025-09-16T00:38:18.379Z)
Latitude
58.60262°
Longitude
-99.46254°
Altitude
936.574 km
Speed
7.45 km/s
True Right ascension
17h 41m 20s
True Declination
58° 27' 12"
Sunlit
Object was in daylight at epoch
Visualization orbit readout
Latitude
Unknown
Longitude
Unknown
Altitude
Unknown
Speed
Unknown
Apparent Right ascension
Unknown
Apparent Declination
Unknown
Sunlit
N/A
Visualization observer readout
Local Sidereal Time
06:57:27
Azimuth
Unknown
Elevation
Unknown
Doppler factor
Unknown
Orbital elements
Apogee altitude
1,181.892 km
Perigee altitude
915.355 km
Semi-major axis
7,426.76 km
Eccentricity
0.01794
Inclination
66.873°
RAAN
129.4513°
Arg. of periapsis
88.6141°
True anomaly
23.41226°
Mean anomaly
22.6052°
Eccentric anomaly
23.00704°
Mean motion
3.39113 °/min
Orbital period
106.16 mins
BSTAR
0.00054317
Loading maneuver chart data...
Computing Atmospheric mass density...

Documentation

Showing up to 5 results
|